Hourly Weather Adamovka

Today, 7 March, Sunday

Time Temperature Precipitation Wind Pressure Humidity
00:00 -6°C° 0.2 mm 2 mps 732 mmHg 92%
01:00 -7°C° 0.2 mm 3 mps 732 mmHg 96%
02:00 -6°C° 0.6 mm 3 mps 731 mmHg 96%
03:00 -5°C° 0.6 mm 3 mps 730 mmHg 97%
04:00 -6°C° 0 mm 5 mps 729 mmHg 97%
05:00 -5°C° 0.7 mm 6 mps 729 mmHg 97%
06:00 -4°C° 0.7 mm 7 mps 728 mmHg 97%
07:00 -4°C° 0.7 mm 9 mps 727 mmHg 97%
08:00 -3°C° 0.5 mm 9 mps 727 mmHg 98%
09:00 -3°C° 0.5 mm 9 mps 727 mmHg 98%
10:00 -3°C° 0 mm 9 mps 726 mmHg 98%
11:00 -4°C° 0.5 mm 9 mps 726 mmHg 98%
12:00 -4°C° 0.5 mm 9 mps 726 mmHg 98%
13:00 -5°C° 0.5 mm 8 mps 725 mmHg 98%
14:00 -6°C° 0.3 mm 8 mps 726 mmHg 96%
15:00 -8°C° 0.3 mm 7 mps 726 mmHg 95%
16:00 -9°C° 0 mm 6 mps 727 mmHg 93%
17:00 -10°C° 0.1 mm 6 mps 728 mmHg 90%
18:00 -11°C° 0.1 mm 6 mps 728 mmHg 88%
19:00 -11°C° 0.1 mm 6 mps 729 mmHg 86%
20:00 -15°C° 0 mm 6 mps 730 mmHg 86%
21:00 -17°C° 0 mm 6 mps 731 mmHg 86%
22:00 -20°C° 0 mm 6 mps 732 mmHg 86%
23:00 -20°C° 0 mm 5 mps 733 mmHg 88%

Tomorrow, 8 March, Monday

Time Temperature Precipitation Wind Pressure Humidity
00:00 -21°C° 0 mm 5 mps 733 mmHg 90%
01:00 -23°C° 0 mm 4 mps 733 mmHg 92%
02:00 -23°C° 0 mm 4 mps 734 mmHg 92%
03:00 -22°C° 0 mm 3 mps 734 mmHg 93%
04:00 -22°C° 0 mm 3 mps 735 mmHg 94%
05:00 -23°C° 0 mm 4 mps 735 mmHg 93%
06:00 -23°C° 0 mm 4 mps 735 mmHg 93%
07:00 -22°C° 0 mm 4 mps 735 mmHg 93%
08:00 -21°C° 0 mm 5 mps 735 mmHg 92%
09:00 -20°C° 0 mm 6 mps 735 mmHg 92%
10:00 -18°C° 0 mm 7 mps 735 mmHg 91%
11:00 -17°C° 0 mm 8 mps 735 mmHg 88%
12:00 -15°C° 0 mm 9 mps 735 mmHg 86%
13:00 -14°C° 0 mm 9 mps 735 mmHg 83%
14:00 -13°C° 0 mm 10 mps 735 mmHg 84%
15:00 -13°C° 0 mm 10 mps 735 mmHg 85%
16:00 -12°C° 0 mm 10 mps 735 mmHg 86%
17:00 -11°C° 0 mm 9 mps 735 mmHg 88%
18:00 -12°C° 0 mm 9 mps 735 mmHg 89%
19:00 -12°C° 0 mm 9 mps 735 mmHg 90%
20:00 -12°C° 0 mm 8 mps 735 mmHg 89%
21:00 -12°C° 0 mm 8 mps 735 mmHg 88%
22:00 -13°C° 0 mm 8 mps 735 mmHg 87%
23:00 -13°C° 0 mm 8 mps 735 mmHg 86%

Day after tomorrow, 9 March, Tuesday

Time Temperature Precipitation Wind Pressure Humidity
00:00 -13°C° 0 mm 8 mps 735 mmHg 84%
01:00 -13°C° 0 mm 8 mps 734 mmHg 82%
02:00 -15°C° 0 mm 8 mps 734 mmHg 82%
03:00 -15°C° 0 mm 8 mps 734 mmHg 82%
04:00 -15°C° 0 mm 8 mps 734 mmHg 81%
05:00 -15°C° 0 mm 8 mps 734 mmHg 82%
06:00 -16°C° 0 mm 8 mps 734 mmHg 82%
07:00 -16°C° 0 mm 8 mps 734 mmHg 83%
08:00 -15°C° 0 mm 8 mps 734 mmHg 83%
09:00 -13°C° 0 mm 7 mps 734 mmHg 83%
10:00 -13°C° 0 mm 7 mps 734 mmHg 84%
11:00 -12°C° 0 mm 7 mps 734 mmHg 85%
12:00 -11°C° 0 mm 7 mps 734 mmHg 86%
13:00 -9°C° 0 mm 7 mps 734 mmHg 87%
14:00 -8°C° 0 mm 6 mps 734 mmHg 89%
15:00 -7°C° 0 mm 5 mps 733 mmHg 90%
16:00 -7°C° 0 mm 5 mps 733 mmHg 91%
17:00 -7°C° 0 mm 4 mps 733 mmHg 93%
18:00 -8°C° 0 mm 4 mps 733 mmHg 94%
19:00 -8°C° 0 mm 4 mps 733 mmHg 95%
20:00 -8°C° 0.2 mm 4 mps 733 mmHg 95%
21:00 -8°C° 0.2 mm 4 mps 732 mmHg 96%
22:00 -7°C° 0.2 mm 3 mps 732 mmHg 96%
23:00 -8°C° 0.2 mm 4 mps 731 mmHg 96%

10 March, Wednesday

Time Temperature Precipitation Wind Pressure Humidity
00:00 -8°C° 0.2 mm 4 mps 731 mmHg 96%
01:00 -8°C° 0.2 mm 4 mps 730 mmHg 96%
02:00 -8°C° 0.2 mm 4 mps 730 mmHg 96%
03:00 -8°C° 0.2 mm 4 mps 729 mmHg 95%
04:00 -8°C° 0.2 mm 4 mps 728 mmHg 95%
05:00 -9°C° 0.1 mm 4 mps 728 mmHg 95%
06:00 -10°C° 0.1 mm 5 mps 727 mmHg 95%
07:00 -10°C° 0.1 mm 5 mps 726 mmHg 95%
08:00 -9°C° 0.3 mm 6 mps 726 mmHg 94%
09:00 -10°C° 0.3 mm 8 mps 726 mmHg 93%
10:00 -9°C° 0.3 mm 9 mps 726 mmHg 92%
11:00 -10°C° 0 mm 9 mps 726 mmHg 90%
12:00 -12°C° 0 mm 9 mps 726 mmHg 89%
13:00 -14°C° 0 mm 9 mps 726 mmHg 88%
14:00 -14°C° 0 mm 9 mps 727 mmHg 87%
15:00 -14°C° 0 mm 9 mps 727 mmHg 86%
16:00 -15°C° 0 mm 9 mps 728 mmHg 84%
17:00 -16°C° 0 mm 9 mps 728 mmHg 86%
18:00 -17°C° 0 mm 9 mps 729 mmHg 87%
19:00 -18°C° 0 mm 8 mps 729 mmHg 89%
20:00 -19°C° 0 mm 8 mps 730 mmHg 90%
21:00 -20°C° 0 mm 7 mps 730 mmHg 91%
22:00 -21°C° 0 mm 7 mps 730 mmHg 92%
23:00 -23°C° 0 mm 7 mps 730 mmHg 93%

11 March, Thursday

Time Temperature Precipitation Wind Pressure Humidity
00:00 -24°C° 0 mm 7 mps 730 mmHg 94%
01:00 -23°C° 0 mm 6 mps 730 mmHg 94%
02:00 -24°C° 0 mm 6 mps 730 mmHg 95%
03:00 -26°C° 0 mm 6 mps 731 mmHg 95%
04:00 -26°C° 0 mm 6 mps 731 mmHg 96%
05:00 -27°C° 0 mm 6 mps 731 mmHg 95%
06:00 -27°C° 0 mm 6 mps 731 mmHg 95%
07:00 -28°C° 0 mm 6 mps 732 mmHg 94%
08:00 -29°C° 0 mm 7 mps 732 mmHg 93%
09:00 -27°C° 0 mm 7 mps 733 mmHg 92%
10:00 -28°C° 0 mm 8 mps 733 mmHg 90%
11:00 -27°C° 0 mm 8 mps 734 mmHg 89%
12:00 -26°C° 0 mm 8 mps 734 mmHg 88%
13:00 -26°C° 0 mm 8 mps 735 mmHg 86%
14:00 -24°C° 0 mm 7 mps 735 mmHg 87%
15:00 -24°C° 0 mm 7 mps 735 mmHg 87%
16:00 -23°C° 0 mm 6 mps 736 mmHg 87%
17:00 -26°C° 0 mm 6 mps 736 mmHg 90%
18:00 -26°C° 0 mm 5 mps 737 mmHg 92%
19:00 -27°C° 0 mm 5 mps 738 mmHg 94%
20:00 -29°C° 0 mm 5 mps 738 mmHg 95%
21:00 -30°C° 0 mm 4 mps 739 mmHg 95%
22:00 -31°C° 0 mm 4 mps 739 mmHg 96%
23:00 -30°C° 0 mm 3 mps 740 mmHg 96%

12 March, Friday

Time Temperature Precipitation Wind Pressure Humidity
00:00 -30°C° 0 mm 3 mps 740 mmHg 96%
01:00 -28°C° 0 mm 2 mps 740 mmHg 95%
02:00 -29°C° 0 mm 2 mps 741 mmHg 95%
03:00 -29°C° 0 mm 2 mps 741 mmHg 94%
04:00 -29°C° 0 mm 2 mps 741 mmHg 93%
05:00 -29°C° 0 mm 2 mps 742 mmHg 92%
06:00 -29°C° 0 mm 2 mps 742 mmHg 91%
07:00 -27°C° 0 mm 1 mps 742 mmHg 90%
08:00 -25°C° 0 mm 1 mps 743 mmHg 88%
09:00 -23°C° 0 mm 1 mps 743 mmHg 86%
10:00 -21°C° 0 mm 1 mps 743 mmHg 85%
11:00 -20°C° 0 mm 1 mps 743 mmHg 83%
12:00 -19°C° 0 mm 1 mps 743 mmHg 81%
13:00 -18°C° 0 mm 1 mps 743 mmHg 80%
14:00 -18°C° 0 mm 1 mps 743 mmHg 82%
15:00 -18°C° 0 mm 1 mps 743 mmHg 84%
16:00 -18°C° 0 mm 1 mps 743 mmHg 86%
17:00 -20°C° 0 mm 0 mps 743 mmHg 86%
18:00 -21°C° 0 mm 0 mps 743 mmHg 86%
19:00 -23°C° 0 mm 0 mps 743 mmHg 86%
20:00 -23°C° 0 mm 0 mps 743 mmHg 83%
21:00 -22°C° 0 mm 0 mps 744 mmHg 80%
22:00 -22°C° 0 mm 1 mps 744 mmHg 77%
23:00 -22°C° 0 mm 1 mps 744 mmHg 76%
Show more